Terminal Aerodrome Forecast
Issued by NWS

Home | Current Version | Previous Version | Text Only | Print | Product List | Glossary On
Versions: 1 2 3 4 5 6 7 8 9 10 11 12 13
000
FTUS45 KMSO 161138
TAFSMN
TAF
KSMN 161138Z 1612/1712 00000KT P6SM SKC
     FM161700 27007KT P6SM BKN080
     FM170100 VRB02KT P6SM BKN080
      AMD LTD TO CLD VIS AND WIND=

USA.gov is the U.S. government's official web portal to all federal, state and local government web resources and services.